LA9UTA-13 Weather Reports


time (UTC)temp
F
wind
direction
speed
knots
gust
knots
rain 1hr
in
rain 24hr
in
rain mn
in
humidity
%
barometer
mb
20260506221802 38 143 0.0 0.0 0.00 0.00 0.00 45 1014.0
20260506215801 38 190 0.9 1.7 0.00 0.00 0.00 46 1014.0
20260506215054 39 152 0.9 0.9 0.00 0.00 0.00 46 1014.0
20260506213802 39 152 0.9 0.9 0.00 0.00 0.00 46 1014.0
20260506211801 38 163 0.9 0.9 0.00 0.00 0.00 52 1013.0
20260506205801 38 168 0.0 0.0 0.00 0.00 0.00 53 1013.0
20260506205044 39 179 0.0 0.0 0.00 0.00 0.00 52 1014.0
20260506203802 39 179 0.0 0.0 0.00 0.00 0.00 52 1014.0
20260506201802 40 180 0.0 0.9 0.00 0.00 0.00 50 1012.9
20260506195801 42 185 0.9 1.7 0.00 0.00 0.00 46 1012.8
20260506195030 44 187 1.7 1.7 0.00 0.00 0.00 41 1012.7
20260506193802 44 187 1.7 1.7 0.00 0.00 0.00 41 1012.7
20260506191802 44 261 2.6 2.6 0.00 0.00 0.00 44 1012.7
20260506191220 47 170 0.0 0.0 0.00 0.00 0.00 36 1012.5
20260506185801 47 170 0.0 0.0 0.00 0.00 0.00 36 1012.5
20260506185022 49 198 0.9 0.9 0.00 0.00 0.00 32 1012.4
20260506183801 49 198 0.9 0.9 0.00 0.00 0.00 32 1012.4
20260506181801 49 335 1.7 2.6 0.00 0.00 0.00 31 1011.4
20260506175801 50 191 2.6 2.6 0.00 0.00 0.00 30 1011.3
20260506173802 53 182 1.7 2.6 0.00 0.00 0.00 26 1011.2
20260506171801 51 247 3.5 3.5 0.00 0.00 0.00 27 1011.3
20260506165802 53 161 0.9 0.9 0.00 0.00 0.00 27 1011.2
20260506163802 55 154 0.0 0.0 0.00 0.00 0.00 27 1011.1
20260506161801 51 174 0.9 0.9 0.00 0.00 0.00 30 1011.3
20260506155802 50 173 0.9 0.9 0.00 0.00 0.00 28 1011.3
20260506153801 51 312 2.6 2.6 0.00 0.00 0.00 27 1011.3
20260506151801 51 227 2.6 2.6 0.00 0.00 0.00 29 1011.3
20260506145802 53 249 5.2 7.8 0.00 0.00 0.00 26 1011.2
20260506143802 50 136 4.3 7.8 0.00 0.00 0.00 25 1011.4
20260506141801 55 205 0.9 1.7 0.00 0.00 0.00 22 1011.1
20260506135801 53 254 4.3 7.0 0.00 0.00 0.00 23 1011.2
20260506133801 52 199 1.7 2.6 0.00 0.00 0.00 24 1012.2
20260506131801 54 160 0.9 1.7 0.00 0.00 0.00 26 1011.1
20260506125801 53 278 1.7 2.6 0.00 0.00 0.00 27 1012.2
20260506123801 53 158 3.5 3.5 0.00 0.00 0.00 28 1012.2
20260506121802 52 124 3.5 5.2 0.00 0.00 0.00 29 1012.2
20260506115801 53 179 1.7 2.6 0.00 0.00 0.00 29 1012.2
20260506113801 51 227 3.5 7.0 0.00 0.00 0.00 31 1012.3
20260506111801 50 152 0.0 0.9 0.00 0.00 0.00 31 1012.3
20260506105801 48 136 2.6 3.5 0.00 0.00 0.00 34 1012.4
20260506103802 51 114 1.7 2.6 0.00 0.00 0.00 30 1012.3
20260506101802 53 184 0.9 1.7 0.00 0.00 0.00 31 1012.2
20260506095801 51 148 0.0 0.0 0.00 0.00 0.00 32 1012.3
20260506093802 52 140 2.6 3.5 0.00 0.00 0.00 31 1012.2
20260506091801 49 135 2.6 2.6 0.00 0.00 0.00 32 1012.4
20260506085801 45 13 2.6 3.5 0.00 0.00 0.00 33 1012.6
20260506083801 46 314 3.5 3.5 0.00 0.00 0.00 35 1012.6
20260506081801 46 158 1.7 2.6 0.00 0.00 0.00 33 1013.5
20260506071801 45 161 1.7 2.6 0.00 0.00 0.00 35 1012.6
20260506061801 41 139 0.9 1.7 0.00 0.00 0.00 45 1013.8
20260506043802 33 163 0.0 0.0 0.00 0.00 0.00 63 1013.3
20260506041801 33 104 2.6 3.5 0.00 0.00 0.00 61 1013.3
20260506035801 30 156 1.7 1.7 0.00 0.00 0.00 69 1013.4
20260506033801 28 171 0.9 0.9 0.00 0.00 0.00 70 1013.5
20260506031801 31 141 0.0 0.9 0.00 0.00 0.00 64 1013.3
20260506025801 31 111 0.9 0.9 0.00 0.00 0.00 63 1013.3
20260506023803 31 123 0.9 1.7 0.00 0.00 0.00 62 1013.3
20260506021802 32 347 1.7 1.7 0.00 0.00 0.00 61 1013.3
20260506015801 30 146 0.0 0.0 0.00 0.00 0.00 68 1013.4
20260506013928 30 132 0.0 0.9 0.00 0.00 0.00 68 1013.4
20260506013801 30 140 0.0 0.0 0.00 0.00 0.00 65 1013.4
20260506005801 30 132 0.0 0.9 0.00 0.00 0.00 68 1013.4
20260506003801 29 164 0.0 0.0 0.00 0.00 0.00 68 1013.4
20260506001801 29 159 0.0 0.0 0.00 0.00 0.00 68 1013.4
20260505235801 30 149 0.0 0.0 0.00 0.00 0.00 66 1013.4
20260505233801 31 162 0.9 0.9 0.00 0.00 0.00 65 1013.3
20260505231801 29 185 0.9 0.9 0.00 0.00 0.00 71 1013.4
20260505230901 29 182 0.9 0.9 0.00 0.00 0.00 68 1013.4
20260505225801 29 182 0.9 0.9 0.00 0.00 0.00 68 1013.4
20260505223801 31 336 1.7 2.6 0.00 0.00 0.00 65 1013.3